TVF46WD LFPO-LICJ

Flight info

Callsign TVF46WD
Flight time 2h 10m
Altitude 37000
Route OKASI DCT OKEKO DCT MOU DCT MADIV DCT MOKIP DCT TUFTA DCT KOGAS DCT MEDAM DCT NITAM DCT MOGBO DCT TIDKA DCT KONER DCT RONAB DCT GIANO
Aircraft B738/M-SDE2E3FGHIJ1RWXYZ/LB1

Departure

Time 2026-05-06 17:36
Airport Paris-Orly Airport (LFPO)

Arrival

Time 2026-05-06 19:47
Airport Falcone–Borsellino Airport (LICJ)
Time Latitude Longitude Altitude Speed Heading
2026-05-06 17:13 48.72630 2.36387 290 ft 0 kts 344°
2026-05-06 17:24 48.72625 2.36389 290 ft 0 kts 344°
2026-05-06 17:24 48.72606 2.36398 294 ft 4 kts 344°
2026-05-06 17:24 48.72577 2.36410 294 ft 4 kts 342°
2026-05-06 17:25 48.72555 2.36424 296 ft 1 kts 323°
2026-05-06 17:25 48.72549 2.36433 296 ft 1 kts 290°
2026-05-06 17:25 48.72547 2.36446 295 ft 1 kts 263°
2026-05-06 17:25 48.72548 2.36459 296 ft 1 kts 256°
2026-05-06 17:26 48.72549 2.36462 295 ft 0 kts 256°
2026-05-06 17:28 48.72547 2.36452 295 ft 4 kts 256°
2026-05-06 17:28 48.72531 2.36359 295 ft 11 kts 255°
2026-05-06 17:28 48.72511 2.36247 292 ft 11 kts 255°
2026-05-06 17:29 48.72485 2.36114 295 ft 14 kts 253°
2026-05-06 17:29 48.72468 2.35969 290 ft 14 kts 269°
2026-05-06 17:29 48.72477 2.35828 295 ft 13 kts 276°
2026-05-06 17:29 48.72467 2.35695 291 ft 13 kts 253°
2026-05-06 17:30 48.72442 2.35567 294 ft 12 kts 255°
2026-05-06 17:30 48.72422 2.35442 290 ft 12 kts 268°
2026-05-06 17:30 48.72473 2.35351 292 ft 13 kts 346°
2026-05-06 17:30 48.72561 2.35315 290 ft 13 kts 345°
2026-05-06 17:31 48.72647 2.35278 292 ft 13 kts 344°
2026-05-06 17:31 48.72731 2.35253 292 ft 12 kts
2026-05-06 17:31 48.72813 2.35288 292 ft 13 kts 18°
2026-05-06 17:31 48.72912 2.35339 292 ft 16 kts 19°
2026-05-06 17:32 48.73011 2.35395 294 ft 15 kts 29°
2026-05-06 17:32 48.73079 2.35506 293 ft 14 kts 57°
2026-05-06 17:32 48.73151 2.35598 293 ft 14 kts 21°
2026-05-06 17:32 48.73213 2.35698 292 ft 13 kts 60°
2026-05-06 17:33 48.73255 2.35817 293 ft 13 kts 62°
2026-05-06 17:33 48.73296 2.35933 291 ft 12 kts 62°
2026-05-06 17:33 48.73339 2.36044 290 ft 12 kts 49°
2026-05-06 17:33 48.73414 2.36098 290 ft 12 kts
2026-05-06 17:34 48.73436 2.36098 290 ft 0 kts 354°
2026-05-06 17:35 48.73461 2.36092 292 ft 10 kts 347°
2026-05-06 17:35 48.73528 2.36019 291 ft 10 kts 272°
2026-05-06 17:36 48.73415 2.35705 293 ft 54 kts 242°
2026-05-06 17:36 48.73118 2.34868 292 ft 124 kts 242°
2026-05-06 17:36 48.72623 2.33454 414 ft 169 kts 242°
2026-05-06 17:36 48.72095 2.31961 1370 ft 160 kts 242°
2026-05-06 17:37 48.71560 2.30430 2104 ft 166 kts 243°
2026-05-06 17:37 48.70987 2.28725 2394 ft 201 kts 243°
2026-05-06 17:37 48.70312 2.26749 2720 ft 220 kts 243°
2026-05-06 17:37 48.69582 2.24640 3187 ft 230 kts 243°
2026-05-06 17:38 48.68820 2.22416 3551 ft 251 kts 243°
2026-05-06 17:38 48.67978 2.20007 4171 ft 261 kts 242°
2026-05-06 17:38 48.67121 2.17588 5041 ft 263 kts 240°
2026-05-06 17:38 48.65895 2.15504 5754 ft 270 kts 211°
2026-05-06 17:39 48.64107 2.14650 6516 ft 277 kts 182°
2026-05-06 17:39 48.62224 2.15252 7266 ft 282 kts 153°
2026-05-06 17:39 48.60725 2.17163 8002 ft 289 kts 126°
2026-05-06 17:39 48.59900 2.19913 8859 ft 285 kts 108°
2026-05-06 17:40 48.59212 2.22679 9798 ft 282 kts 116°
2026-05-06 17:40 48.58153 2.25241 10097 ft 290 kts 128°
2026-05-06 17:40 48.56764 2.27606 10281 ft 313 kts 135°
2026-05-06 17:40 48.55107 2.29913 10537 ft 333 kts 140°
2026-05-06 17:41 48.53296 2.32172 11119 ft 341 kts 141°
2026-05-06 17:41 48.51426 2.34405 11837 ft 344 kts 142°
2026-05-06 17:41 48.49515 2.36605 12581 ft 347 kts 143°
2026-05-06 17:41 48.47604 2.38851 13297 ft 351 kts 141°
2026-05-06 17:42 48.45695 2.41182 14019 ft 355 kts 141°
2026-05-06 17:42 48.43773 2.43548 14742 ft 359 kts 141°
2026-05-06 17:42 48.41858 2.45904 15458 ft 362 kts 141°
2026-05-06 17:42 48.39895 2.48307 16172 ft 366 kts 141°
2026-05-06 17:43 48.37912 2.50725 16857 ft 369 kts 141°
2026-05-06 17:43 48.35901 2.53170 17529 ft 373 kts 141°
2026-05-06 17:43 48.33869 2.55636 18175 ft 377 kts 141°
2026-05-06 17:43 48.31820 2.58120 18809 ft 381 kts 141°
2026-05-06 17:44 48.29746 2.60631 19435 ft 384 kts 141°
2026-05-06 17:44 48.27624 2.63096 20040 ft 388 kts 147°
2026-05-06 17:44 48.25263 2.65083 20624 ft 391 kts 153°
2026-05-06 17:44 48.22808 2.66890 21198 ft 394 kts 154°
2026-05-06 17:45 48.20326 2.68692 21752 ft 398 kts 154°
2026-05-06 17:45 48.17836 2.70532 22291 ft 401 kts 154°
2026-05-06 17:45 48.15336 2.72417 22814 ft 404 kts 153°
2026-05-06 17:45 48.12817 2.74339 23328 ft 408 kts 153°
2026-05-06 17:46 48.10283 2.76279 23826 ft 411 kts 153°
2026-05-06 17:46 48.07724 2.78219 24295 ft 414 kts 154°
2026-05-06 17:46 48.05098 2.80014 24769 ft 417 kts 157°
2026-05-06 17:46 48.02419 2.81710 25212 ft 420 kts 158°
2026-05-06 17:47 47.99715 2.83381 25649 ft 423 kts 158°
2026-05-06 17:47 47.96991 2.85064 26072 ft 425 kts 158°
2026-05-06 17:47 47.94249 2.86771 26487 ft 428 kts 158°
2026-05-06 17:47 47.91495 2.88499 26894 ft 431 kts 157°
2026-05-06 17:48 47.88724 2.90247 27273 ft 434 kts 157°
2026-05-06 17:48 47.85942 2.92007 27649 ft 436 kts 157°
2026-05-06 17:48 47.83140 2.93780 28018 ft 439 kts 157°
2026-05-06 17:48 47.80322 2.95562 28378 ft 441 kts 157°
2026-05-06 17:49 47.77491 2.97350 28720 ft 444 kts 157°
2026-05-06 17:49 47.74640 2.99148 29049 ft 446 kts 157°
2026-05-06 17:49 47.71775 3.00952 29380 ft 448 kts 157°
2026-05-06 17:49 47.68894 3.02764 29700 ft 451 kts 157°
2026-05-06 17:50 47.66002 3.04581 30018 ft 453 kts 157°
2026-05-06 17:50 47.63131 3.06383 30299 ft 455 kts 157°
2026-05-06 17:50 47.60213 3.08212 30576 ft 457 kts 157°
2026-05-06 17:50 47.57278 3.10049 30904 ft 458 kts 157°
2026-05-06 17:51 47.54353 3.11878 31306 ft 456 kts 157°
2026-05-06 17:51 47.51438 3.13696 31759 ft 454 kts 157°
2026-05-06 17:51 47.48529 3.15507 32133 ft 453 kts 158°
2026-05-06 17:51 47.45622 3.17315 32431 ft 454 kts 158°
2026-05-06 17:52 47.42715 3.19120 32773 ft 453 kts 158°
2026-05-06 17:52 47.39814 3.20919 33169 ft 451 kts 158°
2026-05-06 17:52 47.36923 3.22711 33504 ft 450 kts 158°
2026-05-06 17:52 47.34030 3.24503 33790 ft 451 kts 158°
2026-05-06 17:53 47.31142 3.26289 34076 ft 451 kts 158°
2026-05-06 17:53 47.28252 3.28074 34410 ft 449 kts 158°
2026-05-06 17:53 47.25374 3.29850 34748 ft 448 kts 158°
2026-05-06 17:53 47.22497 3.31624 35027 ft 448 kts 158°
2026-05-06 17:54 47.19624 3.33392 35286 ft 448 kts 158°
2026-05-06 17:54 47.16746 3.35162 35555 ft 448 kts 158°
2026-05-06 17:54 47.13880 3.36922 35844 ft 447 kts 158°
2026-05-06 17:54 47.11010 3.38683 36091 ft 447 kts 158°
2026-05-06 17:55 47.08142 3.40440 36318 ft 447 kts 158°
2026-05-06 17:55 47.05271 3.42197 36564 ft 446 kts 158°
2026-05-06 17:55 47.02409 3.43947 36814 ft 446 kts 158°
2026-05-06 17:55 46.99550 3.45693 37004 ft 446 kts 158°
2026-05-06 17:56 46.93773 3.49214 37003 ft 450 kts 158°
2026-05-06 17:56 46.88009 3.52720 36989 ft 446 kts 158°
2026-05-06 17:57 46.82305 3.56181 37002 ft 443 kts 158°
2026-05-06 17:57 46.76626 3.59620 37001 ft 441 kts 158°
2026-05-06 17:58 46.73846 3.61499 36982 ft 441 kts 147°
2026-05-06 17:58 46.71546 3.64433 37019 ft 440 kts 129°
2026-05-06 17:58 46.69897 3.68166 36990 ft 440 kts 112°
2026-05-06 17:58 46.68978 3.72404 37031 ft 440 kts 104°
2026-05-06 17:59 46.67587 3.81178 37016 ft 449 kts 103°
2026-05-06 17:59 46.66117 3.90042 36997 ft 452 kts 104°
2026-05-06 18:00 46.64573 3.98930 36998 ft 453 kts 104°
2026-05-06 18:00 46.63291 4.06314 37000 ft 453 kts 104°
2026-05-06 18:01 46.61496 4.16641 36997 ft 453 kts 104°
2026-05-06 18:01 46.59948 4.25501 36998 ft 451 kts 104°
2026-05-06 18:02 46.58398 4.34326 36998 ft 450 kts 104°
2026-05-06 18:02 46.57099 4.41686 36998 ft 448 kts 104°
2026-05-06 18:03 46.55555 4.50393 37000 ft 447 kts 104°
2026-05-06 18:03 46.54000 4.59120 37000 ft 446 kts 104°
2026-05-06 18:04 46.52443 4.67822 37001 ft 445 kts 104°
2026-05-06 18:04 46.50882 4.76502 37000 ft 444 kts 104°
2026-05-06 18:05 46.49316 4.85168 37004 ft 444 kts 105°
2026-05-06 18:05 46.47742 4.93837 37002 ft 444 kts 105°
2026-05-06 18:06 46.46162 5.02508 37001 ft 445 kts 105°
2026-05-06 18:06 46.44572 5.11181 37003 ft 445 kts 105°
2026-05-06 18:07 46.42961 5.19856 37001 ft 446 kts 105°
2026-05-06 18:07 46.41340 5.28546 37002 ft 447 kts 105°
2026-05-06 18:08 46.39703 5.37238 36998 ft 448 kts 108°
2026-05-06 18:08 46.36977 5.45300 37000 ft 447 kts 126°
2026-05-06 18:09 46.32985 5.52206 36995 ft 448 kts 131°
2026-05-06 18:09 46.28884 5.58989 36996 ft 449 kts 131°
2026-05-06 18:10 46.24796 5.65817 37002 ft 449 kts 131°
2026-05-06 18:10 46.20725 5.72666 37000 ft 450 kts 131°
2026-05-06 18:11 46.16640 5.79538 36998 ft 451 kts 131°
2026-05-06 18:11 46.12578 5.86355 37001 ft 452 kts 131°
2026-05-06 18:12 46.08480 5.93214 36996 ft 452 kts 131°
2026-05-06 18:12 46.04376 6.00065 37004 ft 451 kts 131°
2026-05-06 18:13 46.00273 6.06897 37009 ft 451 kts 131°
2026-05-06 18:13 45.96175 6.13703 36997 ft 450 kts 131°
2026-05-06 18:14 45.92075 6.20497 37002 ft 449 kts 131°
2026-05-06 18:14 45.87981 6.27266 37000 ft 449 kts 131°
2026-05-06 18:15 45.83879 6.34033 37009 ft 449 kts 131°
2026-05-06 18:15 45.79568 6.40505 36997 ft 450 kts 142°
2026-05-06 18:16 45.74485 6.45724 37011 ft 450 kts 146°
2026-05-06 18:16 45.69334 6.50830 36997 ft 451 kts 145°
2026-05-06 18:17 45.64181 6.56001 36993 ft 453 kts 145°
2026-05-06 18:17 45.59026 6.61216 36995 ft 455 kts 145°
2026-05-06 18:18 45.53852 6.66448 37009 ft 457 kts 145°
2026-05-06 18:18 45.48653 6.71693 36989 ft 458 kts 145°
2026-05-06 18:19 45.43444 6.76934 36994 ft 459 kts 145°
2026-05-06 18:19 45.38253 6.82144 37004 ft 460 kts 145°
2026-05-06 18:20 45.33008 6.87398 36998 ft 462 kts 145°
2026-05-06 18:20 45.27749 6.92652 37008 ft 461 kts 145°
2026-05-06 18:21 45.22931 6.98600 37011 ft 460 kts 135°
2026-05-06 18:21 45.18395 7.05023 37007 ft 461 kts 135°
2026-05-06 18:22 45.13819 7.11381 37010 ft 458 kts 136°
2026-05-06 18:22 45.09500 7.17795 36989 ft 447 kts 126°
2026-05-06 18:23 45.05940 7.25053 37014 ft 452 kts 124°
2026-05-06 18:23 45.02368 7.32419 37012 ft 456 kts 125°
2026-05-06 18:24 44.98730 7.39740 36992 ft 452 kts 126°
2026-05-06 18:24 44.94733 7.46457 36999 ft 443 kts 133°
2026-05-06 18:25 44.90548 7.52835 37004 ft 443 kts 133°
2026-05-06 18:25 44.86364 7.59209 37001 ft 443 kts 133°
2026-05-06 18:26 44.82199 7.65610 37003 ft 443 kts 133°
2026-05-06 18:26 44.78036 7.72030 37002 ft 444 kts 133°
2026-05-06 18:27 44.73873 7.78443 37007 ft 444 kts 133°
2026-05-06 18:27 44.69692 7.84867 37005 ft 445 kts 133°
2026-05-06 18:28 44.65506 7.91282 37003 ft 446 kts 133°
2026-05-06 18:28 44.61303 7.97708 37004 ft 447 kts 133°
2026-05-06 18:29 44.57091 8.04133 36998 ft 448 kts 133°
2026-05-06 18:29 44.52898 8.10514 37004 ft 448 kts 133°
2026-05-06 18:30 44.48665 8.16942 37003 ft 449 kts 133°
2026-05-06 18:30 44.44422 8.23369 37001 ft 450 kts 133°
2026-05-06 18:31 44.40172 8.29792 37005 ft 450 kts 133°
2026-05-06 18:31 44.35923 8.36199 37000 ft 449 kts 133°
2026-05-06 18:32 44.31670 8.42598 37001 ft 449 kts 133°
2026-05-06 18:32 44.27427 8.48968 37002 ft 447 kts 133°
2026-05-06 18:33 44.23191 8.55311 36997 ft 446 kts 133°
2026-05-06 18:33 44.18966 8.61625 36994 ft 444 kts 133°
2026-05-06 18:34 44.14752 8.67907 37002 ft 443 kts 133°
2026-05-06 18:34 44.10549 8.74160 37000 ft 442 kts 133°
2026-05-06 18:35 44.06349 8.80394 37001 ft 441 kts 133°
2026-05-06 18:35 44.02156 8.86605 37002 ft 441 kts 133°
2026-05-06 18:36 43.97958 8.92808 37002 ft 441 kts 133°
2026-05-06 18:36 43.93753 8.99008 37002 ft 441 kts 133°
2026-05-06 18:37 43.90253 9.04159 37003 ft 442 kts 133°
2026-05-06 18:37 43.85349 9.11363 37003 ft 443 kts 133°
2026-05-06 18:38 43.81115 9.17566 37007 ft 443 kts 134°
2026-05-06 18:38 43.76591 9.23358 37006 ft 443 kts 141°
2026-05-06 18:39 43.71800 9.28736 36995 ft 444 kts 141°
2026-05-06 18:40 43.64624 9.36858 37001 ft 445 kts 140°
2026-05-06 18:40 43.59860 9.42314 37004 ft 445 kts 140°
2026-05-06 18:41 43.55085 9.47773 36996 ft 446 kts 141°
2026-05-06 18:41 43.50253 9.53111 36994 ft 445 kts 147°
2026-05-06 18:42 43.44812 9.57125 37001 ft 444 kts 154°
2026-05-06 18:42 43.39258 9.60853 37002 ft 444 kts 154°
2026-05-06 18:43 43.33717 9.64596 37000 ft 444 kts 154°
2026-05-06 18:43 43.28193 9.68370 37001 ft 443 kts 154°
2026-05-06 18:44 43.22678 9.72152 37001 ft 443 kts 154°
2026-05-06 18:44 43.17168 9.75927 37001 ft 443 kts 154°
2026-05-06 18:45 43.11657 9.79694 37001 ft 443 kts 154°
2026-05-06 18:45 43.06148 9.83451 37001 ft 442 kts 154°
2026-05-06 18:46 43.00636 9.87202 37002 ft 442 kts 154°
2026-05-06 18:46 42.95129 9.90942 37001 ft 442 kts 154°
2026-05-06 18:47 42.89622 9.94674 37002 ft 442 kts 154°
2026-05-06 18:47 42.84106 9.98406 37002 ft 442 kts 154°
2026-05-06 18:48 42.78595 10.02126 37002 ft 442 kts 154°
2026-05-06 18:48 42.73077 10.05844 37002 ft 442 kts 154°
2026-05-06 18:49 42.67594 10.09531 37002 ft 443 kts 154°
2026-05-06 18:49 42.62071 10.13236 37002 ft 443 kts 154°
2026-05-06 18:50 42.56547 10.16936 36999 ft 443 kts 154°
2026-05-06 18:50 42.51914 10.20033 37002 ft 443 kts 154°
2026-05-06 18:51 42.46428 10.23694 37001 ft 443 kts 154°
2026-05-06 18:51 42.40894 10.27379 37002 ft 443 kts 154°
2026-05-06 18:52 42.35363 10.31055 37002 ft 443 kts 154°
2026-05-06 18:52 42.29831 10.34725 37004 ft 443 kts 154°
2026-05-06 18:53 42.24298 10.38388 37000 ft 443 kts 154°
2026-05-06 18:53 42.18764 10.42045 37002 ft 443 kts 154°
2026-05-06 18:54 42.13228 10.45695 37001 ft 443 kts 154°
2026-05-06 18:54 42.07689 10.49340 37002 ft 443 kts 154°
2026-05-06 18:55 42.02157 10.52975 37000 ft 442 kts 154°
2026-05-06 18:55 41.96625 10.56601 37001 ft 442 kts 154°
2026-05-06 18:56 41.91100 10.60216 37001 ft 442 kts 154°
2026-05-06 18:56 41.85577 10.63823 37001 ft 441 kts 154°
2026-05-06 18:57 41.80053 10.67424 37001 ft 441 kts 154°
2026-05-06 18:57 41.74530 10.71017 37001 ft 441 kts 154°
2026-05-06 18:58 41.69006 10.74604 37002 ft 441 kts 154°
2026-05-06 18:58 41.63483 10.78183 37002 ft 441 kts 154°
2026-05-06 18:59 41.57952 10.81760 37002 ft 442 kts 154°
2026-05-06 18:59 41.52418 10.85332 37002 ft 442 kts 154°
2026-05-06 19:00 41.46876 10.88903 37002 ft 442 kts 154°
2026-05-06 19:00 41.41334 10.92467 37006 ft 442 kts 154°
2026-05-06 19:01 41.35792 10.96025 36995 ft 443 kts 154°
2026-05-06 19:01 41.30244 10.99579 37005 ft 443 kts 154°
2026-05-06 19:02 41.24689 11.03132 37001 ft 443 kts 154°
2026-05-06 19:02 41.19132 11.06678 37002 ft 443 kts 154°
2026-05-06 19:03 41.13614 11.10193 37001 ft 443 kts 155°
2026-05-06 19:03 41.08056 11.13728 37001 ft 443 kts 155°
2026-05-06 19:04 41.02498 11.17254 37001 ft 443 kts 155°
2026-05-06 19:04 40.96943 11.20774 37001 ft 443 kts 155°
2026-05-06 19:05 40.91388 11.24286 37000 ft 442 kts 155°
2026-05-06 19:05 40.85848 11.27782 37012 ft 441 kts 155°
2026-05-06 19:06 40.80311 11.31270 37002 ft 440 kts 155°
2026-05-06 19:06 40.74780 11.34747 37001 ft 440 kts 155°
2026-05-06 19:07 40.69249 11.38218 37002 ft 440 kts 155°
2026-05-06 19:07 40.63718 11.41683 37002 ft 440 kts 155°
2026-05-06 19:08 40.58184 11.45143 37002 ft 441 kts 155°
2026-05-06 19:08 40.52677 11.48581 37002 ft 441 kts 155°
2026-05-06 19:09 40.47134 11.52034 37002 ft 441 kts 155°
2026-05-06 19:09 40.41577 11.55489 37002 ft 442 kts 155°
2026-05-06 19:10 40.36019 11.58939 37002 ft 442 kts 155°
2026-05-06 19:10 40.30453 11.62388 37001 ft 443 kts 155°
2026-05-06 19:11 40.24885 11.65831 37001 ft 443 kts 155°
2026-05-06 19:11 40.19310 11.69273 37001 ft 443 kts 155°
2026-05-06 19:12 40.13737 11.72707 37001 ft 443 kts 155°
2026-05-06 19:12 40.08161 11.76137 37001 ft 443 kts 155°
2026-05-06 19:13 40.02589 11.79558 37001 ft 443 kts 155°
2026-05-06 19:13 39.97016 11.82974 37001 ft 442 kts 155°
2026-05-06 19:14 39.91432 11.86391 36684 ft 447 kts 155°
2026-05-06 19:14 39.88624 11.88107 36341 ft 442 kts 155°
2026-05-06 19:14 39.85848 11.89789 35901 ft 439 kts 156°
2026-05-06 19:14 39.83068 11.91395 35475 ft 435 kts 157°
2026-05-06 19:15 39.80303 11.92947 35048 ft 432 kts 157°
2026-05-06 19:15 39.77552 11.94476 34625 ft 428 kts 157°
2026-05-06 19:15 39.74821 11.95994 34208 ft 425 kts 157°
2026-05-06 19:15 39.72115 11.97502 33792 ft 422 kts 157°
2026-05-06 19:16 39.69425 11.99006 33378 ft 419 kts 157°
2026-05-06 19:16 39.66758 12.00500 32963 ft 416 kts 157°
2026-05-06 19:16 39.64113 12.01984 32565 ft 413 kts 157°
2026-05-06 19:16 39.61487 12.03456 32163 ft 410 kts 157°
2026-05-06 19:17 39.58873 12.04921 31761 ft 407 kts 157°
2026-05-06 19:17 39.56284 12.06372 31367 ft 405 kts 157°
2026-05-06 19:17 39.53706 12.07814 30969 ft 402 kts 157°
2026-05-06 19:17 39.51146 12.09246 30574 ft 399 kts 157°
2026-05-06 19:18 39.48605 12.10666 30187 ft 397 kts 157°
2026-05-06 19:18 39.46076 12.12077 29796 ft 394 kts 157°
2026-05-06 19:18 39.43568 12.13476 29401 ft 391 kts 157°
2026-05-06 19:18 39.41077 12.14865 28995 ft 389 kts 157°
2026-05-06 19:19 39.38602 12.16243 28592 ft 386 kts 157°
2026-05-06 19:19 39.36143 12.17611 28191 ft 384 kts 157°
2026-05-06 19:19 39.33700 12.18970 27789 ft 381 kts 157°
2026-05-06 19:19 39.31302 12.20302 27398 ft 379 kts 157°
2026-05-06 19:20 39.28889 12.21642 26998 ft 376 kts 157°
2026-05-06 19:20 39.26490 12.22973 26608 ft 374 kts 157°
2026-05-06 19:20 39.24106 12.24295 26210 ft 372 kts 157°
2026-05-06 19:20 39.21734 12.25609 25826 ft 370 kts 157°
2026-05-06 19:21 39.19382 12.26911 25424 ft 368 kts 157°
2026-05-06 19:21 39.17032 12.28211 25032 ft 366 kts 157°
2026-05-06 19:21 39.14701 12.29500 24638 ft 364 kts 157°
2026-05-06 19:21 39.12384 12.30780 24252 ft 362 kts 157°
2026-05-06 19:22 39.10077 12.32053 23864 ft 360 kts 157°
2026-05-06 19:22 39.07782 12.33319 23476 ft 358 kts 157°
2026-05-06 19:22 39.05502 12.34576 23090 ft 356 kts 157°
2026-05-06 19:22 39.03230 12.35828 22706 ft 354 kts 157°
2026-05-06 19:23 39.00974 12.37070 22321 ft 352 kts 157°
2026-05-06 19:23 38.98728 12.38305 21938 ft 350 kts 157°
2026-05-06 19:23 38.96493 12.39534 21559 ft 349 kts 157°
2026-05-06 19:23 38.94267 12.40758 21183 ft 347 kts 157°
2026-05-06 19:24 38.92058 12.41970 20821 ft 344 kts 157°
2026-05-06 19:24 38.89863 12.43174 20462 ft 342 kts 157°
2026-05-06 19:24 38.87744 12.44530 20083 ft 341 kts 144°
2026-05-06 19:24 38.86097 12.46675 19738 ft 338 kts 123°
2026-05-06 19:25 38.84937 12.49281 19417 ft 335 kts 118°
2026-05-06 19:25 38.83860 12.51918 19056 ft 333 kts 117°
2026-05-06 19:25 38.82802 12.54555 18706 ft 331 kts 117°
2026-05-06 19:25 38.81750 12.57171 18374 ft 329 kts 117°
2026-05-06 19:26 38.80697 12.59768 18036 ft 327 kts 117°
2026-05-06 19:26 38.79647 12.62341 17707 ft 325 kts 118°
2026-05-06 19:26 38.78598 12.64897 17375 ft 323 kts 118°
2026-05-06 19:26 38.77554 12.67431 17046 ft 321 kts 118°
2026-05-06 19:27 38.76514 12.69950 16716 ft 319 kts 118°
2026-05-06 19:27 38.75480 12.72447 16392 ft 317 kts 118°
2026-05-06 19:27 38.74451 12.74931 16065 ft 315 kts 118°
2026-05-06 19:27 38.73426 12.77401 15739 ft 313 kts 118°
2026-05-06 19:28 38.72407 12.79856 15414 ft 311 kts 118°
2026-05-06 19:28 38.71393 12.82294 15086 ft 310 kts 118°
2026-05-06 19:28 38.70382 12.84724 14751 ft 308 kts 118°
2026-05-06 19:28 38.69390 12.87108 14432 ft 307 kts 118°
2026-05-06 19:29 38.68388 12.89513 14102 ft 305 kts 118°
2026-05-06 19:29 38.67391 12.91904 13768 ft 304 kts 118°
2026-05-06 19:29 38.66396 12.94287 13432 ft 303 kts 118°
2026-05-06 19:29 38.65404 12.96663 13103 ft 302 kts 118°
2026-05-06 19:30 38.64416 12.99027 12758 ft 301 kts 118°
2026-05-06 19:30 38.63430 13.01384 12432 ft 300 kts 118°
2026-05-06 19:30 38.62448 13.03732 12093 ft 299 kts 118°
2026-05-06 19:30 38.61469 13.06070 11750 ft 298 kts 118°
2026-05-06 19:31 38.60488 13.08409 11392 ft 298 kts 118°
2026-05-06 19:31 38.59511 13.10739 11050 ft 297 kts 118°
2026-05-06 19:31 38.57562 13.15383 10371 ft 295 kts 118°
2026-05-06 19:32 38.56592 13.17690 10037 ft 294 kts 118°
2026-05-06 19:32 38.55626 13.19985 9769 ft 291 kts 118°
2026-05-06 19:32 38.54483 13.22050 9607 ft 282 kts 138°
2026-05-06 19:32 38.52860 13.23351 9486 ft 272 kts 157°
2026-05-06 19:33 38.51139 13.24268 9362 ft 264 kts 158°
2026-05-06 19:33 38.49462 13.25150 9241 ft 257 kts 158°
2026-05-06 19:33 38.47806 13.25895 9123 ft 249 kts 173°
2026-05-06 19:33 38.46146 13.25678 9033 ft 237 kts 202°
2026-05-06 19:34 38.44793 13.24527 8793 ft 233 kts 227°
2026-05-06 19:34 38.43909 13.22825 8564 ft 230 kts 245°
2026-05-06 19:34 38.43278 13.20961 8339 ft 228 kts 249°
2026-05-06 19:34 38.42445 13.19270 8061 ft 228 kts 218°
2026-05-06 19:35 38.40999 13.18560 7908 ft 228 kts 182°
2026-05-06 19:35 38.39432 13.18906 7763 ft 233 kts 161°
2026-05-06 19:35 38.37913 13.19692 7596 ft 239 kts 157°
2026-05-06 19:35 38.36398 13.20535 7387 ft 234 kts 157°
2026-05-06 19:36 38.34978 13.21437 7177 ft 225 kts 141°
2026-05-06 19:36 38.34076 13.22973 7023 ft 213 kts 109°
2026-05-06 19:36 38.33883 13.24780 6918 ft 203 kts 83°
2026-05-06 19:36 38.34253 13.26506 6813 ft 204 kts 68°
2026-05-06 19:37 38.34800 13.28158 6665 ft 206 kts 66°
2026-05-06 19:37 38.35366 13.29821 6495 ft 203 kts 66°
2026-05-06 19:37 38.35921 13.31462 6351 ft 201 kts 66°
2026-05-06 19:37 38.36296 13.32566 6254 ft 201 kts 66°
2026-05-06 19:38 38.37030 13.34740 6063 ft 202 kts 66°
2026-05-06 19:38 38.37580 13.36382 5915 ft 201 kts 66°
2026-05-06 19:38 38.37947 13.37481 5814 ft 199 kts 66°
2026-05-06 19:38 38.38485 13.39093 5658 ft 197 kts 66°
2026-05-06 19:39 38.38749 13.40761 5491 ft 197 kts 100°
2026-05-06 19:39 38.38136 13.42262 5369 ft 193 kts 141°
2026-05-06 19:39 38.36958 13.43047 5282 ft 194 kts 161°
2026-05-06 19:39 38.35658 13.43594 5132 ft 197 kts 163°
2026-05-06 19:40 38.34355 13.44121 4976 ft 196 kts 163°
2026-05-06 19:40 38.33054 13.44651 4831 ft 196 kts 163°
2026-05-06 19:40 38.31756 13.45178 4677 ft 196 kts 166°
2026-05-06 19:40 38.30441 13.45104 4494 ft 191 kts 210°
2026-05-06 19:41 38.29576 13.43896 4412 ft 186 kts 242°
2026-05-06 19:41 38.28940 13.42433 4262 ft 191 kts 242°
2026-05-06 19:41 38.28335 13.40910 4128 ft 194 kts 245°
2026-05-06 19:41 38.27779 13.39365 3954 ft 190 kts 246°
2026-05-06 19:42 38.27252 13.37836 3818 ft 188 kts 247°
2026-05-06 19:42 38.26733 13.36308 3681 ft 188 kts 247°
2026-05-06 19:42 38.26216 13.34779 3543 ft 188 kts 247°
2026-05-06 19:42 38.25701 13.33249 3407 ft 188 kts 247°
2026-05-06 19:43 38.25191 13.31738 3326 ft 185 kts 247°
2026-05-06 19:43 38.24685 13.30236 3101 ft 181 kts 247°
2026-05-06 19:43 38.24196 13.28785 2869 ft 176 kts 247°
2026-05-06 19:43 38.23726 13.27389 2640 ft 167 kts 247°
2026-05-06 19:44 38.23274 13.26045 2423 ft 165 kts 247°
2026-05-06 19:44 38.22832 13.24730 2221 ft 157 kts 247°
2026-05-06 19:44 38.22413 13.23485 1999 ft 151 kts 247°
2026-05-06 19:44 38.22001 13.22261 1800 ft 150 kts 247°
2026-05-06 19:45 38.21606 13.21086 1610 ft 142 kts 247°
2026-05-06 19:45 38.21226 13.19956 1423 ft 138 kts 247°
2026-05-06 19:45 38.20847 13.18826 1256 ft 139 kts 247°
2026-05-06 19:45 38.20462 13.17690 1059 ft 141 kts 246°
2026-05-06 19:46 38.20077 13.16557 843 ft 138 kts 247°
2026-05-06 19:46 38.19705 13.15444 684 ft 136 kts 247°
2026-05-06 19:46 38.19328 13.14337 535 ft 137 kts 249°
2026-05-06 19:46 38.18949 13.13220 318 ft 136 kts 249°
2026-05-06 19:47 38.18590 13.12121 153 ft 131 kts 249°
2026-05-06 19:47 38.18259 13.11108 65 ft 108 kts 248°
2026-05-06 19:47 38.18048 13.10483 67 ft 47 kts 248°
2026-05-06 19:47 38.18013 13.10285 67 ft 18 kts 275°
2026-05-06 19:48 38.18027 13.10128 65 ft 18 kts 278°
2026-05-06 19:48 38.18042 13.09975 65 ft 17 kts 280°
2026-05-06 19:48 38.18095 13.09995 59 ft 12 kts 81°
2026-05-06 19:48 38.18122 13.10096 60 ft 12 kts 67°
2026-05-06 19:49 38.18156 13.10194 60 ft 12 kts 66°
2026-05-06 19:49 38.18188 13.10287 63 ft 12 kts 66°
2026-05-06 19:49 38.18234 13.10363 63 ft 11 kts 12°
2026-05-06 19:49 38.18300 13.10392 63 ft 11 kts 63°
2026-05-06 19:50 38.18334 13.10477 61 ft 11 kts 42°
2026-05-06 19:50 38.18404 13.10507 57 ft 10 kts 21°
2026-05-06 19:50 38.18454 13.10568 64 ft 10 kts 68°
2026-05-06 19:50 38.18483 13.10649 58 ft 10 kts 66°
2026-05-06 19:51 38.18516 13.10703 58 ft 7 kts 15°
2026-05-06 19:51 38.18550 13.10682 57 ft 1 kts 311°
2026-05-06 19:51 38.18558 13.10673 64 ft 1 kts 322°
2026-05-06 19:51 38.18566 13.10668 60 ft 0 kts 328°
2026-05-06 19:52 38.18567 13.10666 60 ft 0 kts 329°